Location: Cluj-Napoca
(46.7712°N, 23.6236°E)
Time: 22:47:41
(UTC+03:00)

N. Korean satellite - Pass Details

Date: 07 October 2021
Orbit: 450 x 495 km, 97.3° (Epoch: 25 October)

Event Time Altitude Azimuth Distance (km) Brightness Sun altitude
Rises 05:35:48 0° 32° (NNE) 2,570 11.0 -20.6°
Reaches altitude 10° 05:38:56 10° 63° (ENE) 1,690 10.4 -20.1°
Maximum altitude 05:40:35 13° 90° (E) 1,530 10.1 -19.8°
Drops below altitude 10° 05:42:14 10° 117° (ESE) 1,689 10.0 -19.5°
Sets 05:45:21 0° 147° (SSE) 2,569 10.5 -19.0°
